CW5444 Weather Reports


time (UTC)temp
C
wind
direction
speed
KPH
gust
KPH
rain 1hr
cm
rain 24hr
cm
rain mn
cm
humidity
%
barometer
mb
20260507151430 10 267 1.6 4.8 0.03 0.94 0.51 92 1012.5
20260507150416 10 200 1.6 8.0 0.05 0.94 0.51 91 1012.8
20260507145424 10 246 3.2 8.0 0.05 0.97 0.51 91 1012.7
20260507144433 10 264 0.0 8.0 0.05 0.97 0.51 91 1012.7
20260507143419 10 286 3.2 11.3 0.05 0.97 0.51 92 1012.6
20260507142426 10 252 1.6 6.4 0.05 0.97 0.51 91 1012.6
20260507141432 10 205 3.2 8.0 0.03 0.94 0.48 91 1012.7
20260507140419 11 268 3.2 4.8 0.00 0.91 0.46 92 1012.6
20260507135426 11 318 0.0 9.7 0.00 0.94 0.46 92 1012.4
20260507134435 11 340 3.2 8.0 0.00 0.94 0.46 92 1012.2
20260507133420 11 329 3.2 6.4 0.00 0.94 0.46 92 1012.3
20260507132426 11 336 3.2 6.4 0.00 0.94 0.46 92 1012.4
20260507131433 11 288 4.8 8.0 0.00 0.94 0.46 92 1012.4
20260507130422 11 329 4.8 12.9 0.00 0.94 0.46 93 1012.2
20260507125430 11 341 3.2 8.0 0.00 1.22 0.46 93 1012.3
20260507124435 11 284 3.2 6.4 0.00 1.22 0.46 93 1012.3
20260507123421 11 292 1.6 4.8 0.00 1.22 0.46 93 1012.3
20260507122429 11 282 0.0 3.2 0.00 1.22 0.46 93 1012.3
20260507121419 11 281 0.0 3.2 0.00 1.22 0.46 93 1012.6
20260507120428 11 281 0.0 0.0 0.00 1.22 0.46 93 1012.7
20260507115416 11 281 1.6 3.2 0.00 1.55 0.46 93 1012.7
20260507114423 11 331 0.0 1.6 0.00 1.55 0.46 93 1012.6
20260507113428 11 331 1.6 3.2 0.00 1.55 0.46 93 1012.1
20260507112456 11 331 0.0 4.8 0.00 1.55 0.46 93 1012.2
20260507111420 11 344 3.2 9.7 0.03 1.55 0.46 93 1012.1
20260507110426 11 339 1.6 6.4 0.03 1.55 0.46 93 1012.1
20260507105434 11 258 0.0 4.8 0.03 1.75 0.46 93 1012.0
20260507104442 11 256 0.0 4.8 0.03 1.75 0.46 92 1012.0
20260507103428 11 224 0.0 4.8 0.03 1.75 0.46 93 1011.9
20260507102418 11 221 1.6 9.7 0.05 1.75 0.46 92 1011.9
20260507101424 12 201 3.2 8.0 0.03 1.73 0.43 93 1011.9
20260507100448 12 219 0.0 0.0 0.05 1.73 0.43 93 1011.7
20260507095432 12 219 0.0 0.0 0.05 1.73 0.43 93 1011.4
20260507094419 12 219 0.0 4.8 0.05 1.73 0.43 93 1011.6
20260507093424 12 236 1.6 3.2 0.05 1.73 0.43 93 1011.5
20260507092429 12 237 1.6 4.8 0.03 1.70 0.41 92 1011.2
20260507091433 12 254 1.6 6.4 0.03 1.70 0.41 92 1011.3
20260507090419 12 242 3.2 6.4 0.00 1.68 0.38 92 1011.7
20260507085426 12 206 0.0 8.0 0.00 1.68 0.38 93 1011.9
20260507084430 12 198 1.6 3.2 0.00 1.68 0.38 93 1011.4
20260507083440 12 198 0.0 6.4 0.00 1.68 0.38 93 1011.4
20260507082447 12 205 0.0 0.0 0.00 1.68 0.38 93 1011.7
20260507081433 12 173 0.0 0.0 0.00 1.68 0.38 93 1011.8
20260507080415 12 173 0.0 0.0 0.00 1.68 0.38 93 1011.5
20260507075420 12 173 0.0 0.0 0.00 1.68 0.38 93 1011.0
20260507074427 12 173 0.0 0.0 0.00 1.68 0.38 93 1011.6
20260507073433 12 173 0.0 0.0 0.08 1.68 0.38 93 1011.3
20260507072420 12 173 0.0 0.0 0.10 1.68 0.38 92 1011.3
20260507071428 12 148 0.0 4.8 0.28 1.68 0.38 93 1011.6
20260507070433 13 148 0.0 8.0 0.36 1.68 0.38 93 1011.8
20260507065422 13 194 0.0 4.8 0.36 1.68 0.38 93 1011.5
20260507064433 13 195 1.6 6.4 0.36 1.68 0.38 93 1011.8
20260507063420 13 219 3.2 9.7 0.28 1.60 0.30 92 1011.9
20260507062429 15 327 3.2 11.3 0.25 1.57 0.28 92 1011.7
20260507061434 15 187 4.8 12.9 0.08 1.40 0.10 94 1011.8
20260507060418 15 186 4.8 12.9 0.03 1.32 0.03 94 1011.9
20260507055421 15 178 4.8 11.3 0.03 1.32 0.03 94 1011.7
20260507054425 15 184 3.2 9.7 0.03 1.32 0.03 94 1011.8
20260507053431 15 179 1.6 8.0 0.03 1.32 0.03 93 1011.7
20260507052416 15 176 0.0 3.2 0.03 1.32 0.03 93 1011.8
20260507051424 15 177 0.0 3.2 0.00 1.30 0.00 93 1011.7
20260507050432 15 177 1.6 6.4 0.00 1.30 0.00 93 1012.3
20260507045418 15 155 1.6 9.7 0.00 1.30 0.00 93 1012.9
20260507044423 15 153 3.2 9.7 0.00 1.30 0.00 93 1012.9
20260507043429 15 167 3.2 12.9 0.00 1.30 0.00 93 1013.2
20260507042416 15 178 3.2 14.5 0.00 1.30 0.00 93 1013.2
20260507041425 15 178 3.2 9.7 0.00 1.30 0.00 93 1012.9
20260507040430 15 174 1.6 8.0 0.00 1.30 0.00 93 1012.7
20260507035415 15 181 1.6 8.0 0.00 1.30 1.30 93 1012.7
20260507034420 15 167 1.6 8.0 0.00 1.30 1.30 92 1012.5
20260507033427 15 152 1.6 9.7 0.03 1.30 1.30 92 1012.6
20260507032434 15 180 1.6 4.8 0.03 1.30 1.30 92 1012.6
20260507031419 15 167 1.6 6.4 0.03 1.30 1.30 92 1012.7
20260507030427 15 180 0.0 3.2 0.10 1.30 1.30 92 1012.7
20260507025432 15 167 1.6 6.4 0.20 1.30 1.30 92 1012.7
20260507024439 15 194 0.0 6.4 0.23 1.30 1.30 92 1012.7
20260507023444 16 190 3.2 12.9 0.20 1.27 1.27 91 1012.9
20260507022429 16 173 6.4 24.1 0.20 1.27 1.27 91 1013.4
20260507021415 16 204 8.0 14.5 0.23 1.27 1.27 91 1013.7
20260507020422 16 162 8.0 16.1 0.18 1.19 1.19 91 1013.8
20260507015426 16 167 6.4 12.9 0.08 1.09 1.09 91 1013.3
20260507014431 16 136 4.8 14.5 0.08 1.07 1.07 91 1013.4
20260507013437 16 182 6.4 17.7 0.08 1.07 1.07 91 1013.0
20260507012420 17 187 3.2 11.3 0.08 1.07 1.07 91 1013.0
20260507011429 17 178 4.8 14.5 0.05 1.04 1.04 90 1012.9
20260507010435 17 190 6.4 14.5 0.05 1.02 1.02 90 1012.9
20260507005420 17 155 3.2 9.7 0.05 1.02 1.02 90 1012.5
20260507004428 17 176 4.8 12.9 0.03 0.99 0.99 89 1012.2
20260507003432 17 161 1.6 8.0 0.03 0.99 0.99 88 1012.0
20260507002454 17 187 1.6 9.7 0.03 0.99 0.99 87 1011.8
20260507001419 18 171 0.0 6.4 0.03 0.99 0.99 86 1011.8
20260507000427 18 185 3.2 11.3 0.00 0.97 0.97 84 1012.1
20260506235430 18 188 1.6 8.0 0.00 0.97 0.97 83 1012.1
20260506234417 18 167 3.2 11.3 0.00 0.97 0.97 83 1011.9
20260506233424 18 183 1.6 6.4 0.00 0.97 0.97 83 1012.0
20260506232416 18 180 1.6 6.4 0.00 0.97 0.97 83 1011.9
20260506231423 18 193 4.8 9.7 0.00 0.97 0.97 82 1011.7
20260506230430 18 194 4.8 11.3 0.00 0.97 0.97 82 1011.9
20260506225418 19 177 3.2 12.9 0.00 0.97 0.97 81 1012.1
20260506224426 19 157 3.2 8.0 0.00 0.97 0.97 82 1012.1
20260506223450 19 171 4.8 11.3 0.00 0.97 0.97 81 1012.0
20260506222416 19 174 6.4 12.9 0.00 0.97 0.97 82 1012.0
20260506221424 19 136 3.2 12.9 0.00 0.97 0.97 81 1012.0
20260506220453 19 189 4.8 8.0 0.00 0.97 0.97 81 1011.9
20260506215420 19 190 4.8 22.5 0.00 0.97 0.97 81 1012.1
20260506214427 19 180 8.0 19.3 0.00 0.97 0.97 81 1012.6
20260506213435 19 173 9.7 16.1 0.00 0.97 0.97 81 1012.4
20260506212421 18 205 8.0 14.5 0.00 0.97 0.97 82 1012.3
20260506211428 18 193 8.0 19.3 0.00 0.97 0.97 82 1012.2
20260506210435 18 175 9.7 20.9 0.00 0.97 0.97 82 1012.2
20260506205424 18 150 8.0 16.1 0.00 0.97 0.97 82 1012.3
20260506204430 18 185 8.0 19.3 0.00 0.97 0.97 82 1012.3
20260506203418 18 180 8.0 16.1 0.00 0.97 0.97 82 1012.1
20260506202420 18 189 8.0 17.7 0.00 0.97 0.97 82 1012.1
20260506201443 18 196 6.4 17.7 0.00 0.97 0.97 82 1012.1
20260506200430 18 169 11.3 25.7 0.00 0.97 0.97 81 1012.5
20260506195422 19 183 12.9 25.7 0.00 0.97 0.97 80 1012.4
20260506194431 19 121 12.9 30.6 0.00 0.97 0.97 81 1012.5
20260506193420 18 200 11.3 22.5 0.00 0.97 0.97 83 1012.6
20260506192427 19 181 12.9 27.4 0.00 0.97 0.97 82 1012.5
20260506191455 19 182 8.0 19.3 0.00 0.97 0.97 82 1012.3
20260506190442 19 157 6.4 17.7 0.00 0.97 0.97 83 1012.3
20260506185430 19 198 9.7 22.5 0.00 0.97 0.97 84 1012.3
20260506184431 18 171 9.7 27.4 0.00 0.97 0.97 85 1012.2
20260506183419 18 190 8.0 17.7 0.00 0.97 0.97 86 1012.0
20260506182428 18 185 9.7 25.7 0.00 0.97 0.97 86 1012.1
20260506181433 18 184 11.3 27.4 0.00 0.97 0.97 87 1012.0
20260506180423 17 171 6.4 16.1 0.00 0.97 0.97 90 1012.0
20260506175451 17 193 8.0 20.9 0.00 0.97 0.97 90 1012.3
20260506174420 17 142 4.8 22.5 0.00 0.97 0.97 91 1012.5
20260506173427 17 180 8.0 16.1 0.00 0.97 0.97 92 1012.4
20260506172434 16 196 9.7 19.3 0.00 0.97 0.97 92 1012.5
20260506171422 16 193 4.8 16.1 0.00 0.97 0.97 92 1012.8
20260506170430 16 178 4.8 17.7 0.00 0.97 0.97 92 1012.9
20260506165417 16 158 3.2 9.7 0.03 0.97 0.97 92 1013.2
20260506164423 15 134 0.0 9.7 0.03 0.97 0.97 92 1013.2
20260506163430 15 162 3.2 8.0 0.05 0.97 0.97 92 1013.8
20260506162420 15 159 1.6 4.8 0.08 0.97 0.97 92 1014.1
20260506161429 15 172 0.0 6.4 0.08 0.97 0.97 92 1014.0
20260506160435 15 221 0.0 0.0 0.08 0.97 0.97 92 1014.2
20260506155423 15 235 0.0 0.0 0.08 0.94 0.94 92 1014.2
20260506154429 15 239 0.0 0.0 0.08 0.94 0.94 92 1014.1
20260506153416 15 256 0.0 0.0 0.08 0.91 0.91 92 1014.0
20260506152445 15 257 0.0 0.0 0.05 0.89 0.89 92 1013.7